Вернуться в каталог

TITAN 3C TRANSTAGE DEB

АктивенVLEO
NORAD 3386·DEBRIS·🇺🇸 United States

Запущен Oct 15, 1965 с Cape Canaveral Space Force Station

Loading…

Ближайшие Пролёты (ближайшие 24 часа)

TLE

СвежийSource: Space-Track

Эпоха: Sep 14, 2026, 06:35 UTC

1 03386U 65082MY  26257.27459722  .00002278  00000-0  18034-3 0  9999
2 03386  32.3720 341.9757 0005443   6.9342 353.1393 14.99010226259204

Отслеживайте TITAN 3C TRANSTAGE DEB в реальном времени с AllMySat

Download on the App Store